Plattsmouth, NE

6:31 PM CDT on April 30, 2017 (GMT -0500)
Plattsmouth Municipal

Weather History for KPMV - July, 2013

Change the Weather History Date:

Thursday, July 4, 2013

  Actual Average (KOFF) Record (KOFF)
Temperature  
Mean Temperature 72 °F -  
Max Temperature 85 °F 83 °F 98 °F (2012)
Min Temperature 59 °F 65 °F 51 °F (2015)
Cooling Degree Days 6    
Growing Degree Days 22 (Base 50)    
Moisture  
Dew Point 56 °F    
Average Humidity 59    
Maximum Humidity 83    
Minimum Humidity 35    
Precipitation  
Precipitation 0.00 in - - ()
Sea Level Pressure  
Sea Level Pressure 29.97 in    
Wind  
Wind Speed 9 mph (SSE)    
Max Wind Speed 16 mph    
Max Gust Speed 21 mph    
Visibility 10 miles    
Events      
Averages and records for this station are not official NWS values.
T = Trace of Precipitation, MM = Missing Value Source: NWS Daily Summary

Daily Weather History Graph

Daily Weather History Graph

Search for Another Location

Airport or City:

Trip Planner

Search our weather history database for the weather conditions in past years. The results will help you decide how hot, cold, wet, or windy it might be!

Date:

Astronomy

Jul. 04, 2013 Rise Set
Actual Time 5:57 AM CDT 8:58 PM CDT
Civil Twilight 5:23 AM CDT 9:32 PM CDT
Nautical Twilight 4:41 AM CDT 10:14 PM CDT
Astronomical Twilight 3:51 AM CDT 11:03 PM CDT
Moon 3:15 AM CDT (7/4) 6:03 PM CDT (7/4)
Length of Visible Light 16h 08m
Length of Day
15h 01m
Waning Crescent, 11% of the Moon is Illuminated
Jul 4
Waning Crescent
Jul 8
New
Jul 15
First Quarter
Jul 22
Full
Jul 29
Last Quarter

Hourly Weather History & Observations

Time (CDT) Temp. Heat Index Dew Point Humidity Pressure Visibility Wind Dir Wind Speed Gust Speed Precip Events Conditions
12:15 AM 66.7 °F - 58.3 °F 74% 30.00 in 10.0 mi SSE 8.1 mph - N/A   Clear
12:35 AM 66.7 °F - 56.7 °F 70% 30.00 in 10.0 mi SSE 9.2 mph - N/A   Clear
12:55 AM 65.3 °F - 56.1 °F 72% 30.00 in 10.0 mi SSE 8.1 mph - N/A   Clear
1:15 AM 64.6 °F - 55.6 °F 73% 30.00 in 10.0 mi South 9.2 mph - N/A   Clear
1:35 AM 63.5 °F - 55.4 °F 75% 30.00 in 10.0 mi South 9.2 mph - N/A   Clear
1:55 AM 63.5 °F - 54.9 °F 73% 30.00 in 10.0 mi SSE 9.2 mph - N/A   Clear
2:15 AM 63.0 °F - 54.9 °F 75% 30.01 in 10.0 mi South 9.2 mph - N/A   Clear
2:35 AM 63.5 °F - 54.5 °F 72% 30.00 in 10.0 mi SSE 8.1 mph - N/A   Clear
2:55 AM 62.6 °F - 54.7 °F 75% 30.00 in 10.0 mi SSE 8.1 mph - N/A   Clear
3:15 AM 62.1 °F - 54.9 °F 77% 30.00 in 10.0 mi SSE 6.9 mph - N/A   Clear
3:35 AM 61.7 °F - 54.9 °F 78% 30.00 in 10.0 mi South 6.9 mph - N/A   Clear
3:55 AM 61.2 °F - 55.0 °F 80% 30.00 in 10.0 mi SSE 8.1 mph - N/A   Clear
4:15 AM 61.0 °F - 55.0 °F 81% 30.00 in 10.0 mi South 9.2 mph - N/A   Clear
4:35 AM 60.8 °F - 55.0 °F 81% 30.00 in 10.0 mi South 8.1 mph - N/A   Clear
4:55 AM 60.6 °F - 55.0 °F 82% 30.00 in 10.0 mi South 8.1 mph - N/A   Clear
5:15 AM 60.8 °F - 55.0 °F 81% 30.00 in 10.0 mi SSE 8.1 mph - N/A   Clear
5:35 AM 60.8 °F - 54.9 °F 81% 30.00 in 10.0 mi South 5.8 mph - N/A   Clear
5:55 AM 60.3 °F - 54.9 °F 82% 30.00 in 10.0 mi South 6.9 mph - N/A   Clear
6:15 AM 59.9 °F - 54.9 °F 83% 30.00 in 10.0 mi South 5.8 mph - N/A   Clear
6:35 AM 59.9 °F - 54.9 °F 83% 30.00 in 10.0 mi South 4.6 mph - N/A   Clear
6:55 AM 60.8 °F - 55.4 °F 82% 30.01 in 10.0 mi South 3.5 mph - N/A   Clear
7:15 AM 61.7 °F - 55.8 °F 81% 30.01 in 10.0 mi SSE 6.9 mph - N/A   Clear
7:35 AM 63.0 °F - 56.5 °F 79% 30.01 in 10.0 mi SSE 8.1 mph - N/A   Clear
7:55 AM 64.4 °F - 56.5 °F 75% 30.01 in 10.0 mi SSE 10.4 mph - N/A   Clear
8:15 AM 65.7 °F - 57.2 °F 74% 30.02 in 10.0 mi SSE 9.2 mph - N/A   Clear
8:35 AM 67.3 °F - 57.6 °F 71% 30.01 in 10.0 mi SSE 10.4 mph - N/A   Clear
8:55 AM 68.2 °F - 58.3 °F 71% 30.01 in 10.0 mi SSE 10.4 mph - N/A   Clear
9:35 AM 71.6 °F - 59.2 °F 65% 30.01 in 10.0 mi South 11.5 mph - N/A   Clear
10:15 AM 74.3 °F - 58.5 °F 58% 30.01 in 10.0 mi South 12.7 mph - N/A   Clear
11:15 AM 77.7 °F - 58.3 °F 51% 30.01 in 10.0 mi South 13.8 mph - N/A   Clear
11:55 AM 79.7 °F - 59.0 °F 49% 30.00 in 10.0 mi South 11.5 mph 18.4 mph N/A   Clear
12:15 PM 80.4 °F 81.1 °F 59.7 °F 49% 30.00 in 10.0 mi South 11.5 mph 17.3 mph N/A   Scattered Clouds
12:35 PM 80.8 °F 81.5 °F 60.4 °F 50% 30.00 in 10.0 mi South 9.2 mph - N/A   Scattered Clouds
1:15 PM 82.4 °F 82.7 °F 60.4 °F 47% 29.99 in 10.0 mi SSE 10.4 mph - N/A   Clear
1:35 PM 82.9 °F 83.2 °F 60.1 °F 46% 29.98 in 10.0 mi SE 10.4 mph 18.4 mph N/A   Clear
1:55 PM 82.9 °F 82.6 °F 57.9 °F 42% 29.98 in 10.0 mi SSE 9.2 mph 18.4 mph N/A   Clear
2:15 PM 83.7 °F 83.0 °F 56.8 °F 40% 29.98 in 10.0 mi South 10.4 mph - N/A   Clear
2:35 PM 84.2 °F 83.3 °F 57.0 °F 39% 29.97 in 10.0 mi SSE 10.4 mph 16.1 mph N/A   Clear
2:55 PM 84.6 °F 83.7 °F 57.0 °F 39% 29.97 in 10.0 mi SSE 10.4 mph 19.6 mph N/A   Clear
3:15 PM 84.9 °F 83.7 °F 56.1 °F 37% 29.96 in 10.0 mi SSE 12.7 mph 19.6 mph N/A   Clear
3:35 PM 84.6 °F 83.2 °F 54.5 °F 36% 29.96 in 10.0 mi SSE 16.1 mph 20.7 mph N/A   Clear
3:55 PM 84.7 °F 83.4 °F 55.0 °F 36% 29.96 in 10.0 mi SSE 13.8 mph 19.6 mph N/A   Clear
4:15 PM 84.7 °F 83.3 °F 54.3 °F 35% 29.96 in 10.0 mi SSE 13.8 mph 17.3 mph N/A   Clear
4:35 PM 84.7 °F 83.4 °F 55.2 °F 36% 29.96 in 10.0 mi SSE 9.2 mph - N/A   Clear
4:55 PM 84.6 °F 83.1 °F 53.8 °F 35% 29.95 in 10.0 mi SSE 12.7 mph 17.3 mph N/A   Clear
5:15 PM 84.6 °F 83.2 °F 54.7 °F 36% 29.94 in 10.0 mi SSE 11.5 mph 19.6 mph N/A   Clear
5:35 PM 84.2 °F 83.2 °F 55.8 °F 38% 29.94 in 10.0 mi SSE 10.4 mph 19.6 mph N/A   Clear
5:55 PM 84.2 °F 83.0 °F 55.6 °F 37% 29.93 in 10.0 mi SSE 8.1 mph 17.3 mph N/A   Clear
6:15 PM 83.5 °F 82.4 °F 54.7 °F 37% 29.93 in 10.0 mi SSE 10.4 mph - N/A   Clear
6:35 PM 82.9 °F 82.1 °F 55.9 °F 39% 29.93 in 10.0 mi SSE 10.4 mph - N/A   Clear
6:55 PM 82.6 °F 81.7 °F 54.9 °F 38% 29.93 in 10.0 mi SSE 11.5 mph - N/A   Clear
7:15 PM 81.1 °F 80.9 °F 55.6 °F 41% 29.92 in 10.0 mi SSE 8.1 mph - N/A   Clear
8:15 PM 78.3 °F - 57.4 °F 49% 29.92 in 10.0 mi SE 6.9 mph - N/A   Clear
8:35 PM 76.5 °F - 58.1 °F 53% 29.92 in 10.0 mi SE 6.9 mph - N/A   Clear
8:55 PM 75.9 °F - 57.7 °F 53% 29.91 in 10.0 mi SE 8.1 mph - N/A   Clear
9:15 PM 75.0 °F - 57.2 °F 54% 29.91 in 10.0 mi SE 8.1 mph - N/A   Clear
9:35 PM 74.3 °F - 57.4 °F 55% 29.91 in 10.0 mi SE 10.4 mph - N/A   Clear
9:55 PM 74.3 °F - 57.0 °F 55% 29.92 in 10.0 mi SE 10.4 mph - N/A   Clear
10:15 PM 73.6 °F - 56.7 °F 55% 29.93 in 10.0 mi SSE 9.2 mph - N/A   Clear
10:35 PM 73.4 °F - 56.3 °F 55% 29.93 in 10.0 mi SSE 11.5 mph - N/A   Clear
10:55 PM 72.9 °F - 56.1 °F 56% 29.93 in 10.0 mi SSE 10.4 mph - N/A   Clear
11:15 PM 72.5 °F - 55.8 °F 56% 29.93 in 10.0 mi SSE 11.5 mph - N/A   Clear
11:35 PM 72.7 °F - 55.8 °F 55% 29.93 in 10.0 mi SSE 10.4 mph 17.3 mph N/A   Clear
11:55 PM 72.5 °F - 55.9 °F 56% 29.93 in 10.0 mi SSE 9.2 mph - N/A   Clear